Weather History for Windom, MN

Change the Weather History Date:

Thursday, January 24, 2013

  Actual Average Record
Temperature  
Mean Temperature 4 °F -  
Max Temperature 14 °F 26 °F 65 °F (1981)
Min Temperature -7 °F 6 °F -38 °F (2011)
Degree Days  
Heating Degree Days 62    
Moisture  
Dew Point -6 °F    
Average Humidity 64    
Maximum Humidity 79    
Minimum Humidity 52    
Precipitation  
Precipitation 0.00 in - - ()
Sea Level Pressure  
Sea Level Pressure 30.37 in    
Wind  
Wind Speed 9 mph (SE)    
Max Wind Speed 22 mph    
Max Gust Speed 28 mph    
Visibility 10 miles    
Events Snow    
Averages and records for this station are not official NWS values.
T = Trace of Precipitation, MM = Missing Value Source: NWS Daily Summary

Daily Weather History Graph

Daily Weather History Graph

Search for Another Location

Airport:

Trip Planner

Search our weather history database for the weather conditions in past years. The results will help you decide how hot, cold, wet, or windy it might be!

Date:

Astronomy

Jan. 24, 2013 Rise Set
Actual Time 7:45 AM CST 5:20 PM CST
Civil Twilight 7:13 AM CST 5:51 PM CST
Nautical Twilight 6:38 AM CST 6:26 PM CST
Astronomical Twilight 6:04 AM CST 7:00 PM CST
Moon 3:22 PM CST (1/24) 5:44 AM CST (1/24)
Length of Visible Light 10h 37m
Length of Day
9h 35m
Waxing Gibbous, 94% of the Moon is Illuminated
Jan 24
Waxing Gibbous
Jan 26
Full
Feb 3
Last Quarter
Feb 10
New
Feb 17
First Quarter

Hourly Weather History & Observations

Time (CST) Temp. Windchill Dew Point Humidity Pressure Visibility Wind Dir Wind Speed Gust Speed Precip Events Conditions
12:12 AM -7.6 °F -25.7 °F -14.8 °F 71% 30.54 in 10.0 mi NNW 10.4 mph - N/A   Clear
12:32 AM -7.6 °F -23.4 °F -14.8 °F 71% 30.54 in 10.0 mi NNW 8.1 mph - N/A   Clear
12:53 AM -7.6 °F -24.6 °F -14.8 °F 71% 30.54 in 10.0 mi North 9.2 mph - N/A   Clear
1:12 AM -7.6 °F -25.7 °F -14.8 °F 71% 30.53 in 10.0 mi North 10.4 mph - N/A   Clear
1:32 AM -7.6 °F -24.6 °F -14.8 °F 71% 30.53 in 10.0 mi North 9.2 mph - N/A   Clear
1:53 AM -7.6 °F -22.1 °F -14.8 °F 71% 30.54 in 10.0 mi North 6.9 mph - N/A   Clear
2:12 AM -7.6 °F -22.1 °F -14.8 °F 71% 30.55 in 10.0 mi North 6.9 mph - N/A   Clear
2:32 AM -7.6 °F -22.1 °F -14.8 °F 71% 30.56 in 10.0 mi North 6.9 mph - N/A   Clear
2:53 AM -5.8 °F -19.9 °F -13.0 °F 71% 30.56 in 10.0 mi North 6.9 mph - N/A   Clear
3:12 AM -5.8 °F -18.4 °F -13.0 °F 71% 30.57 in 10.0 mi North 5.8 mph - N/A   Clear
3:32 AM -5.8 °F -14.5 °F -13.0 °F 71% 30.55 in 10.0 mi NNE 3.5 mph - N/A   Clear
3:53 AM -5.8 °F -19.9 °F -13.0 °F 71% 30.53 in 10.0 mi NNE 6.9 mph - N/A   Clear
4:12 AM -5.8 °F -21.2 °F -13.0 °F 71% 30.52 in 10.0 mi NE 8.1 mph - N/A   Clear
4:32 AM -5.8 °F -14.5 °F -13.0 °F 71% 30.53 in 10.0 mi NE 3.5 mph - N/A   Clear
4:52 AM -5.8 °F - -13.0 °F 71% 30.54 in 10.0 mi Calm Calm - N/A   Clear
5:12 AM -5.8 °F - -11.2 °F 77% 30.53 in 10.0 mi Calm Calm - N/A   Clear
5:33 AM -5.8 °F - -11.2 °F 77% 30.52 in 10.0 mi Calm Calm - N/A   Clear
5:52 AM -4.0 °F - -11.2 °F 71% 30.54 in 10.0 mi Calm Calm - N/A   Scattered Clouds
6:12 AM -4.0 °F - -11.2 °F 71% 30.54 in 10.0 mi Calm Calm - N/A   Scattered Clouds
6:33 AM -4.0 °F - -11.2 °F 71% 30.56 in 10.0 mi Calm Calm - N/A   Clear
6:52 AM -4.0 °F - -11.2 °F 71% 30.57 in 10.0 mi Calm Calm - N/A   Clear
7:12 AM -2.2 °F - -11.2 °F 66% 30.56 in 10.0 mi Calm Calm - N/A   Clear
7:33 AM -2.2 °F -12.5 °F -9.4 °F 71% 30.54 in 10.0 mi East 4.6 mph - N/A   Clear
7:52 AM -2.2 °F -16.8 °F -9.4 °F 71% 30.52 in 10.0 mi East 8.1 mph - N/A   Clear
8:12 AM -2.2 °F -18.0 °F -9.4 °F 71% 30.50 in 10.0 mi East 9.2 mph - N/A   Clear
8:33 AM -2.2 °F -15.6 °F -9.4 °F 71% 30.50 in 10.0 mi ESE 6.9 mph - N/A   Clear
8:52 AM -2.2 °F -15.6 °F -9.4 °F 71% 30.51 in 10.0 mi ESE 6.9 mph - N/A   Clear
9:12 AM -0.4 °F -12.0 °F -9.4 °F 66% 30.50 in 10.0 mi SE 5.8 mph - N/A   Clear
9:33 AM -0.4 °F -16.7 °F -9.4 °F 66% 30.47 in 10.0 mi ESE 10.4 mph - N/A   Clear
9:52 AM -0.4 °F -16.7 °F -9.4 °F 66% 30.48 in 10.0 mi ESE 10.4 mph - N/A   Clear
10:12 AM 1.4 °F -14.5 °F -7.6 °F 66% 30.47 in 10.0 mi SE 10.4 mph - N/A   Clear
10:32 AM 3.2 °F -13.9 °F -7.6 °F 61% 30.47 in 10.0 mi SE 12.7 mph - N/A   Clear
10:52 AM 3.2 °F -13.9 °F -7.6 °F 61% 30.47 in 10.0 mi SE 12.7 mph - N/A   Clear
11:13 AM 3.2 °F -12.2 °F -5.8 °F 66% 30.46 in 10.0 mi SE 10.4 mph - N/A   Clear
11:32 AM 5.0 °F -11.6 °F -5.8 °F 61% 30.45 in 10.0 mi SE 12.7 mph 17.3 mph N/A   Clear
11:52 AM 5.0 °F -9.1 °F -5.8 °F 61% 30.43 in 10.0 mi SE 9.2 mph - N/A   Clear
12:13 PM 6.8 °F -9.3 °F -5.8 °F 56% 30.41 in 10.0 mi SE 12.7 mph 18.4 mph N/A   Clear
12:32 PM 6.8 °F -10.0 °F -5.8 °F 56% 30.39 in 10.0 mi SE 13.8 mph 20.7 mph N/A   Clear
12:52 PM 6.8 °F -11.3 °F -5.8 °F 56% 30.37 in 10.0 mi SSE 16.1 mph 21.9 mph N/A   Clear
1:13 PM 8.6 °F -10.0 °F -4.0 °F 57% 30.36 in 10.0 mi SSE 18.4 mph 24.2 mph N/A   Clear
1:32 PM 10.4 °F -6.6 °F -4.0 °F 52% 30.35 in 10.0 mi SSE 16.1 mph 23.0 mph N/A   Clear
1:52 PM 8.6 °F -8.3 °F -5.8 °F 52% 30.35 in 10.0 mi SE 15.0 mph 21.9 mph N/A   Clear
2:13 PM 8.6 °F -7.7 °F -5.8 °F 52% 30.33 in 10.0 mi SSE 13.8 mph 20.7 mph N/A   Clear
2:32 PM 10.4 °F -5.4 °F -4.0 °F 52% 30.31 in 10.0 mi SE 13.8 mph 19.6 mph N/A   Clear
2:52 PM 10.4 °F -6.0 °F -4.0 °F 52% 30.28 in 10.0 mi SE 15.0 mph 23.0 mph N/A   Clear
3:13 PM 10.4 °F -6.6 °F -2.2 °F 57% 30.25 in 10.0 mi SE 16.1 mph 24.2 mph N/A   Clear
3:32 PM 12.2 °F -4.3 °F -2.2 °F 53% 30.24 in 10.0 mi SE 16.1 mph 24.2 mph N/A   Clear
3:52 PM 10.4 °F -7.2 °F -4.0 °F 52% 30.24 in 10.0 mi SE 17.3 mph 26.5 mph N/A   Clear
4:13 PM 10.4 °F -6.0 °F -2.2 °F 57% 30.24 in 10.0 mi SE 15.0 mph 24.2 mph N/A   Clear
4:32 PM 10.4 °F -4.8 °F -2.2 °F 57% 30.24 in 10.0 mi SE 12.7 mph 23.0 mph N/A   Clear
4:52 PM 10.4 °F -6.6 °F -2.2 °F 57% 30.22 in 10.0 mi SE 16.1 mph 23.0 mph N/A   Scattered Clouds
5:13 PM 10.4 °F -7.7 °F -2.2 °F 57% 30.20 in 10.0 mi SE 18.4 mph 23.0 mph N/A   Overcast
5:32 PM 10.4 °F -6.0 °F -2.2 °F 57% 30.20 in 10.0 mi SE 15.0 mph 23.0 mph N/A   Overcast
5:52 PM 10.4 °F -6.6 °F -2.2 °F 57% 30.18 in 10.0 mi SE 16.1 mph 23.0 mph N/A   Overcast
6:13 PM 10.4 °F -6.0 °F -2.2 °F 57% 30.21 in 10.0 mi SE 15.0 mph 19.6 mph N/A   Overcast
6:32 PM 12.2 °F -1.0 °F -0.4 °F 57% 30.20 in 10.0 mi SE 10.4 mph 17.3 mph N/A   Overcast
6:52 PM 12.2 °F -3.1 °F -0.4 °F 57% 30.19 in 10.0 mi SE 13.8 mph - N/A   Overcast
7:13 PM 12.2 °F -6.3 °F -0.4 °F 57% 30.17 in 10.0 mi SSE 20.7 mph - N/A   Overcast
7:32 PM 12.2 °F -4.8 °F -0.4 °F 57% 30.12 in 10.0 mi SE 17.3 mph 27.6 mph N/A   Overcast
7:52 PM 12.2 °F -4.3 °F -0.4 °F 57% 30.12 in 10.0 mi SE 16.1 mph 25.3 mph N/A   Overcast
8:13 PM 12.2 °F -5.3 °F -0.4 °F 57% 30.13 in 10.0 mi SSE 18.4 mph 25.3 mph N/A   Overcast
8:32 PM 12.2 °F -4.3 °F -0.4 °F 57% 30.14 in 10.0 mi SSE 16.1 mph - N/A   Overcast
8:53 PM 12.2 °F -2.5 °F -0.4 °F 57% 30.14 in 10.0 mi South 12.7 mph 20.7 mph N/A   Overcast
9:12 PM 12.2 °F -4.3 °F -0.4 °F 57% 30.12 in 10.0 mi South 16.1 mph 21.9 mph N/A   Mostly Cloudy
9:32 PM 12.2 °F -6.7 °F 1.4 °F 62% 30.09 in 10.0 mi South 21.9 mph 26.5 mph N/A   Scattered Clouds
9:53 PM 12.2 °F -2.5 °F 1.4 °F 62% 30.14 in 10.0 mi South 12.7 mph 20.7 mph N/A   Mostly Cloudy
10:12 PM 14.0 °F -2.0 °F 1.4 °F 57% 30.13 in 10.0 mi South 16.1 mph 19.6 mph N/A   Overcast
10:32 PM 14.0 °F -2.0 °F 3.2 °F 62% 30.11 in 10.0 mi South 16.1 mph 20.7 mph N/A   Overcast
10:53 PM 12.2 °F -3.1 °F 5.0 °F 73% 30.12 in 5.0 mi South 13.8 mph - N/A Snow Light Snow
11:12 PM 12.2 °F -2.5 °F 6.8 °F 79% 30.08 in 4.0 mi South 12.7 mph 19.6 mph N/A Snow Light Snow
11:32 PM 12.2 °F 1.7 °F 5.0 °F 73% 30.11 in 10.0 mi South 6.9 mph 16.1 mph N/A   Scattered Clouds
11:53 PM 14.0 °F 0.5 °F 5.0 °F 67% 30.09 in 10.0 mi South 11.5 mph - N/A   Scattered Clouds